This demonstration page uses our WeatherBlox Daily Observations layout. Learn more.

36.17497, -115.13722

Hourly Observations for January 1, 2018

Temp ( °F °C ) Dew Point ( °F °C ) Humidity (%) Winds ( mph kmh ) Pressure ( in mb ) Visibility ( mi km ) Precip ( " mm )
12:53 am 00:53 Clear 41 5 13 -10.6 32 32 WNW 3 6 30.24 1024 10 16.0934 0 0
1:53 am 01:53 Clear 42 5.6 16 -8.9 35 35 WNW 6 9 30.26 1025 10 16.0934 0 0
2:53 am 02:53 Clear 43 6.1 10 -12.2 26 26 NNW 8 13 30.27 1025 10 16.0934 0 0
3:53 am 03:53 Clear 39 3.9 15 -9.4 38 38 WNW 8 13 30.26 1025 10 16.0934 0 0
4:53 am 04:53 Clear 40 4.4 15 -9.4 36 36 WNW 5 7 30.27 1025 10 16.0934 0 0
5:53 am 05:53 Clear 38 3.3 15 -9.4 39 39 NW 3 6 30.29 1026 10 16.0934 0 0
6:53 am 06:53 Sunny 38 3.3 14 -10 37 37 NNW 3 6 30.31 1026 10 16.0934 0 0
7:53 am 07:53 Sunny 43 6.1 15 -9.4 32 32 W 3 6 30.32 1027 10 16.0934 0 0
8:53 am 08:53 Sunny 48 8.9 14 -10 25 25 Calm 30.34 1028 10 16.0934 0 0
9:53 am 09:53 Sunny 51 10.6 13 -10.6 22 22 W 5 7 30.35 1028 10 16.0934 0 0
10:53 am 10:53 Sunny 56 13.3 11 -11.7 17 17 SW 3 6 30.32 1027 10 16.0934 0 0
11:53 am 11:53 Sunny 58 14.4 12 -11.1 16 16 Calm 30.3 1026 10 16.0934 0 0
12:53 pm 12:53 Sunny 61 16.1 10 -12.2 13 13 Calm 30.27 1025 10 16.0934 0 0
1:53 pm 13:53 Sunny 62 16.7 10 -12.2 13 13 Calm 30.25 1024 10 16.0934 0 0
2:53 pm 14:53 Sunny 62 16.7 12 -11.1 14 14 S 5 7 30.23 1024 10 16.0934 0 0
3:53 pm 15:53 Sunny 61 16.1 10 -12.2 13 13 E 5 7 30.24 1024 10 16.0934 0 0
4:53 pm 16:53 Clear 59 15 11 -11.7 15 15 Calm 30.24 1024 10 16.0934 0 0
5:53 pm 17:53 Clear 53 11.7 14 -10 21 21 Calm 30.26 1025 9 14.48406 0 0
6:53 pm 18:53 Clear 51 10.6 17 -8.3 26 26 Calm 30.27 1025 10 16.0934 0 0
7:53 pm 19:53 Clear 50 10 20 -6.7 30 30 W 3 6 30.27 1025 10 16.0934 0 0
8:53 pm 20:53 Clear 49 9.4 21 -6.1 33 33 W 5 7 30.27 1025 10 16.0934 0 0
9:53 pm 21:53 Clear 46 7.8 19 -7.2 34 34 NW 3 6 30.28 1025 10 16.0934 0 0
10:53 pm 22:53 Clear 46 7.8 18 -7.8 32 32 WNW 3 6 30.28 1026 10 16.0934 0 0
11:53 pm 23:53 Clear 44 6.7 17 -8.3 34 34 Calm 30.3 1026 10 16.0934 0 0

Powered by AerisWeather